GW4420 Weather Reports


time (UTC)temp
C
wind
direction
speed
KPH
gust
KPH
rain 1hr
cm
rain 24hr
cm
rain mn
cm
humidity
%
barometer
mb
20260906190105 26 252 1.6 11.3 0.00 0.00 0.00 92 1001.8
20260906185604 26 357 6.4 14.5 0.00 0.00 0.00 92 1001.7
20260906185103 26 153 1.6 4.8 0.00 0.00 0.00 92 1001.9
20260906184558 26 246 1.6 4.8 0.00 0.00 0.00 92 1002.0
20260906184053 26 94 0.0 9.7 0.00 0.00 0.00 92 1001.8
20260906183549 26 216 3.2 4.8 0.00 0.00 0.00 92 1001.9
20260906183045 26 105 1.6 12.9 0.00 0.00 0.00 92 1001.7
20260906182540 26 254 6.4 9.7 0.00 0.00 0.00 92 1001.9
20260906182036 26 64 4.8 4.8 0.00 0.00 0.00 92 1001.8
20260906181531 26 312 4.8 11.3 0.00 0.00 0.00 92 1001.8
20260906181027 26 292 1.6 3.2 0.00 0.00 0.00 92 1001.9
20260906180522 26 68 0.0 3.2 0.00 0.00 0.00 92 1001.9
20260906180021 26 97 0.0 4.8 0.00 0.00 0.00 91 1001.8
20260906175514 26 96 1.6 9.7 0.00 0.00 0.00 91 1002.0
20260906175009 26 58 1.6 3.2 0.00 0.00 0.00 91 1001.8
20260906174507 26 294 3.2 4.8 0.00 0.00 0.00 91 1001.7
20260906174002 26 119 1.6 3.2 0.00 0.00 0.00 91 1001.6
20260906173457 26 300 4.8 9.7 0.00 0.00 0.00 91 1001.9
20260906172957 26 49 3.2 4.8 0.00 0.00 0.00 91 1001.9
20260906172453 26 137 1.6 6.4 0.00 0.00 0.00 91 1001.8
20260906171948 26 12 3.2 4.8 0.00 0.00 0.00 91 1002.0
20260906171442 26 31 1.6 6.4 0.00 0.00 0.00 91 1001.8
20260906170938 26 336 0.0 1.6 0.00 0.00 0.00 91 1002.0
20260906170434 26 254 1.6 14.5 0.00 0.00 0.00 91 1002.1
20260906165931 26 283 4.8 9.7 0.00 0.00 0.00 91 1002.0
20260906165430 26 77 3.2 3.2 0.00 0.00 0.00 91 1002.0
20260906164926 26 249 1.6 3.2 0.00 0.00 0.00 91 1002.2
20260906164424 26 95 0.0 1.6 0.00 0.00 0.00 91 1002.3
20260906163921 26 243 3.2 6.4 0.00 0.00 0.00 91 1002.4
20260906163416 26 95 3.2 4.8 0.00 0.00 0.00 91 1002.2
20260906162915 26 75 1.6 1.6 0.00 0.00 0.00 91 1002.4
20260906162413 26 329 3.2 12.9 0.00 0.00 0.00 91 1002.2
20260906161908 26 59 1.6 4.8 0.00 0.00 0.00 91 1002.5
20260906161402 26 184 3.2 9.7 0.00 0.00 0.00 91 1002.3
20260906160901 26 186 3.2 11.3 0.00 0.00 0.00 92 1002.4
20260906160355 26 277 6.4 11.3 0.00 0.00 0.00 91 1002.3
20260906155853 26 69 1.6 4.8 0.00 0.00 0.00 91 1002.4
20260906155347 26 42 4.8 17.7 0.00 0.00 0.00 92 1002.2
20260906154844 26 325 3.2 16.1 0.00 0.00 0.00 92 1002.3
20260906154343 26 258 3.2 6.4 0.00 0.00 0.00 92 1002.3
20260906153842 26 238 4.8 9.7 0.00 0.00 0.00 92 1002.3
20260906153336 26 106 0.0 4.8 0.00 0.00 0.00 92 1002.4
20260906152831 26 100 3.2 6.4 0.00 0.00 0.00 92 1002.5
20260906152326 26 350 3.2 6.4 0.00 0.00 0.00 92 1002.6
20260906151825 26 89 1.6 3.2 0.00 0.00 0.00 92 1002.8
20260906151321 26 334 3.2 4.8 0.00 0.00 0.00 92 1002.6
20260906150816 26 1 3.2 6.4 0.00 0.00 0.00 92 1002.7
20260906150312 26 133 1.6 6.4 0.00 0.00 0.00 93 1002.5
20260906145811 26 323 6.4 12.9 0.00 4.27 4.27 93 1002.6
20260906145309 26 334 3.2 22.5 0.00 4.27 4.27 93 1002.6
20260906144804 26 42 0.0 4.8 0.00 4.27 4.27 93 1002.7
20260906144259 26 330 4.8 11.3 0.00 4.27 4.27 93 1002.3
20260906143759 26 133 4.8 6.4 0.00 4.27 4.27 93 1002.1
20260906143256 26 57 3.2 17.7 0.00 4.27 4.27 93 1002.3
20260906142755 26 61 1.6 6.4 0.00 4.27 4.27 92 1002.5
20260906142252 26 219 3.2 14.5 0.00 4.27 4.27 92 1002.5
20260906141750 26 268 14.5 20.9 0.00 4.27 4.27 92 1002.5
20260906141244 26 285 9.7 14.5 0.43 4.27 4.27 92 1002.6
20260906140744 26 258 8.0 12.9 0.43 4.27 4.27 92 1002.4
20260906140239 26 297 4.8 9.7 0.00 4.19 4.19 91 1002.5
20260906135735 27 191 1.6 4.8 0.18 4.19 4.19 91 1002.4
20260906135232 27 43 3.2 14.5 0.00 4.17 4.17 90 1002.6
20260906134727 27 292 1.6 4.8 0.00 4.17 4.17 90 1002.7
20260906134222 27 266 6.4 17.7 0.00 4.17 4.17 90 1002.6
20260906133718 27 106 4.8 9.7 0.00 4.17 4.17 90 1002.7
20260906133213 27 257 6.4 12.9 0.00 4.17 4.17 90 1002.9
20260906132708 27 20 4.8 11.3 0.00 4.17 4.17 90 1002.6
20260906132204 27 260 3.2 9.7 0.00 4.17 4.17 90 1002.6
20260906131659 27 66 6.4 11.3 0.00 4.17 4.17 90 1002.7
20260906131154 27 303 3.2 4.8 0.00 4.17 4.17 90 1002.9
20260906130649 27 293 9.7 16.1 0.00 4.17 4.17 90 1002.7
20260906130145 27 30 4.8 6.4 0.00 4.17 4.17 90 1002.7
20260906125642 27 353 4.8 16.1 0.00 4.17 4.17 90 1002.6
20260906125141 27 91 3.2 6.4 0.00 4.17 4.17 90 1002.6
20260906124637 27 150 1.6 6.4 0.00 4.17 4.17 89 1002.5
20260906124132 27 314 14.5 20.9 0.00 4.17 4.17 89 1002.3
20260906123631 27 269 4.8 22.5 0.00 4.17 4.17 90 1002.6
20260906123126 27 83 3.2 6.4 0.00 4.17 4.17 90 1002.5
20260906122626 27 312 9.7 22.5 0.00 4.17 4.17 90 1002.7
20260906122121 27 308 3.2 9.7 0.00 4.17 4.17 90 1002.2
20260906121617 27 179 1.6 3.2 0.00 4.17 4.17 90 1002.2
20260906121114 27 160 4.8 12.9 0.00 4.17 4.17 90 1002.1
20260906120609 27 93 0.0 4.8 0.00 4.17 4.17 90 1001.9
20260906120107 27 168 6.4 11.3 0.00 4.17 4.17 90 1002.0
20260906115606 27 103 1.6 6.4 0.00 4.17 4.17 90 1002.0
20260906115102 27 178 4.8 11.3 0.00 4.17 4.17 90 1001.8
20260906114601 27 238 4.8 6.4 0.00 4.17 4.17 90 1001.8
20260906114057 27 45 3.2 4.8 0.00 4.17 4.17 90 1001.8
20260906113556 27 37 4.8 6.4 0.00 4.17 4.17 90 1001.6
20260906113051 27 97 1.6 6.4 0.00 4.17 4.17 90 1001.5
20260906112546 27 315 4.8 9.7 0.00 4.17 4.17 91 1001.5
20260906112042 27 309 3.2 14.5 0.00 4.17 4.17 91 1001.6
20260906111542 27 142 6.4 9.7 0.00 4.17 4.17 91 1001.2
20260906111037 27 107 4.8 11.3 0.00 4.17 4.17 91 1001.2
20260906110537 27 103 1.6 9.7 0.00 4.17 4.17 91 1001.3
20260906110036 27 200 4.8 11.3 0.00 4.17 4.17 91 1001.3
20260906105531 27 280 3.2 12.9 0.00 4.17 4.17 91 1001.2
20260906105027 27 308 4.8 6.4 0.00 4.17 4.17 91 1001.2
20260906104525 27 278 3.2 16.1 0.00 4.17 4.17 91 1001.3
20260906104021 27 326 3.2 6.4 0.00 4.17 4.17 91 1001.5
20260906103519 27 182 1.6 4.8 0.00 4.17 4.17 91 1001.4
20260906103014 27 138 3.2 9.7 0.00 4.17 4.17 91 1001.2
20260906102514 27 306 3.2 6.4 0.00 4.17 4.17 91 1001.5
20260906102015 27 301 6.4 17.7 0.00 4.17 4.17 91 1001.3
20260906101509 27 3 8.0 12.9 0.00 4.17 4.17 91 1001.3
20260906101004 27 259 1.6 6.4 0.00 4.17 4.17 91 1001.1
20260906100500 27 149 1.6 14.5 0.00 4.17 4.17 91 1001.1
20260906100000 27 309 3.2 9.7 0.00 4.17 4.17 91 1001.1
20260906095455 27 341 3.2 4.8 0.00 4.17 4.17 91 1001.0
20260906094950 27 84 3.2 12.9 0.00 4.17 4.17 91 1001.1
20260906094443 27 314 3.2 6.4 0.13 4.17 4.17 91 1001.0
20260906093939 27 66 1.6 11.3 0.13 4.17 4.17 90 1001.0
20260906093436 27 357 3.2 4.8 0.00 4.14 4.14 90 1001.2
20260906092936 27 134 1.6 11.3 0.48 4.14 4.14 90 1000.9
20260906092435 27 7 1.6 9.7 0.48 4.14 4.14 88 1001.2
20260906091931 27 71 3.2 9.7 0.00 4.06 4.06 88 1001.1
20260906091426 27 125 0.0 9.7 0.00 4.06 4.06 88 1001.0
20260906090923 27 104 6.4 12.9 0.00 4.06 4.06 88 1000.9
20260906090418 27 112 1.6 17.7 0.00 4.06 4.06 88 1000.7
20260906085912 27 289 8.0 17.7 0.00 4.06 4.06 88 1000.8
20260906085412 27 311 3.2 9.7 0.00 4.06 4.06 87 1000.9
20260906084911 27 100 1.6 11.3 0.00 4.06 4.06 87 1001.1
20260906084406 27 79 3.2 14.5 0.00 4.06 4.06 87 1001.2
20260906083900 27 330 6.4 17.7 0.00 4.06 4.06 87 1000.9
20260906083355 27 275 4.8 4.8 0.00 4.06 4.06 87 1001.2
20260906082849 27 18 4.8 14.5 0.00 4.06 4.06 87 1001.0
20260906082345 27 329 3.2 6.4 0.00 4.06 4.06 87 1000.7
20260906081841 27 296 17.7 29.0 0.00 4.06 4.06 87 1000.4
20260906081336 27 225 1.6 4.8 0.00 4.06 4.06 87 1000.3
20260906080832 28 288 4.8 20.9 0.00 4.06 4.06 87 1000.3
20260906080328 28 306 3.2 12.9 0.00 4.06 4.06 87 1000.3
20260906075827 28 81 3.2 11.3 0.00 4.06 4.06 87 1000.2
20260906075328 28 247 9.7 12.9 0.00 4.06 4.06 87 1000.2
20260906074823 28 92 3.2 3.2 0.00 4.06 4.06 87 1000.2
20260906074323 28 154 4.8 12.9 0.00 4.06 4.06 87 1000.1
20260906073821 28 118 1.6 14.5 0.00 4.06 4.06 86 1000.1
20260906073316 28 44 3.2 14.5 0.00 4.06 4.06 87 999.9
20260906072813 28 139 1.6 4.8 0.00 4.06 4.06 88 999.9
20260906072308 28 317 4.8 9.7 0.00 4.06 4.06 88 999.9
20260906071804 28 71 0.0 1.6 0.00 4.06 4.06 87 1000.0
20260906071304 28 215 3.2 4.8 0.00 4.06 4.06 87 1000.1
20260906070800 28 342 3.2 12.9 0.00 4.06 4.06 86 999.9
20260906070255 28 216 8.0 12.9 0.00 4.06 4.06 86 1000.1
20260906065750 28 233 3.2 4.8 0.00 4.06 4.06 87 999.9
20260906065246 28 334 11.3 20.9 0.00 4.06 4.06 88 999.8
20260906064741 28 108 1.6 4.8 0.00 4.06 4.06 89 999.8
20260906064237 27 9 4.8 9.7 0.00 4.06 4.06 88 1000.0
20260906063732 27 9 4.8 9.7 0.00 4.06 4.06 88 999.9
20260906063227 28 313 22.5 29.0 0.00 4.06 4.06 86 1000.0
20260906062722 28 290 6.4 14.5 0.00 4.06 4.06 86 1000.0
20260906062221 28 322 11.3 22.5 0.00 4.06 4.06 86 999.9
20260906061718 28 338 9.7 17.7 0.00 4.06 4.06 87 1000.1
20260906061214 27 337 6.4 6.4 0.00 4.06 4.06 88 1000.3
20260906060709 27 31 6.4 9.7 0.00 4.06 4.06 88 1000.0
20260906060206 27 299 3.2 12.9 0.00 4.06 4.06 88 999.9
20260906055702 27 316 6.4 9.7 0.00 4.06 4.06 88 999.9
20260906055156 27 270 3.2 6.4 0.00 4.06 4.06 87 1000.1
20260906054652 27 257 3.2 17.7 0.00 4.06 4.06 87 999.9
20260906054151 27 37 9.7 17.7 0.00 4.06 4.06 87 999.8
20260906053648 27 320 6.4 14.5 0.00 4.06 4.06 88 999.8
20260906053143 27 290 8.0 16.1 0.00 4.06 4.06 88 999.7
20260906052639 27 293 4.8 20.9 0.00 4.06 4.06 88 999.7
20260906052135 28 71 4.8 11.3 0.00 4.06 4.06 88 999.7
20260906051631 28 290 3.2 20.9 0.00 4.06 4.06 88 999.6
20260906051126 28 322 12.9 16.1 0.00 4.06 4.06 88 999.8
20260906050622 28 0 4.8 16.1 0.00 4.06 4.06 88 1000.0
20260906050122 28 332 4.8 17.7 0.00 4.06 4.06 89 999.6
20260906045620 28 279 9.7 16.1 0.00 4.06 4.06 89 999.5
20260906045115 28 128 3.2 24.1 0.00 4.06 4.06 90 999.6
20260906044611 27 96 4.8 11.3 0.00 4.06 4.06 91 999.3
20260906044106 27 117 6.4 16.1 0.00 4.06 4.06 91 999.3
20260906043603 27 201 8.0 14.5 0.00 4.06 4.06 91 999.4
20260906043058 27 282 8.0 17.7 0.00 4.06 4.06 91 999.6
20260906042557 27 287 4.8 16.1 0.00 4.06 4.06 90 999.4
20260906042051 28 99 1.6 11.3 0.00 4.06 4.06 90 999.8
20260906041548 28 235 6.4 12.9 0.00 4.06 4.06 91 999.6
20260906041043 28 307 12.9 16.1 0.00 4.06 4.06 91 999.8
20260906040538 27 279 1.6 11.3 0.00 4.06 4.06 92 1000.1
20260906040033 27 302 3.2 4.8 0.00 4.06 4.06 93 1000.0
20260906035523 27 52 9.7 22.5 0.00 4.06 4.06 92 1000.1
20260906035019 27 110 3.2 9.7 0.00 4.06 4.06 93 1000.0
20260906034518 27 268 8.0 11.3 0.00 4.06 4.06 93 1000.0
20260906034013 27 295 14.5 22.5 0.00 4.06 4.06 93 1000.4
20260906033508 27 203 9.7 12.9 0.00 4.06 4.06 93 1000.4
20260906033004 27 326 4.8 14.5 0.00 4.06 4.06 93 1000.5
20260906032500 27 341 3.2 9.7 0.00 4.06 4.06 93 1000.6
20260906032000 27 55 9.7 16.1 0.00 4.06 4.06 93 1000.5
20260906031455 27 298 3.2 16.1 0.00 4.06 4.06 93 1000.4
20260906030945 27 24 6.4 11.3 0.00 4.06 4.06 94 1000.5
20260906030439 27 288 9.7 12.9 0.00 4.06 4.06 94 1000.4
20260906025934 27 294 4.8 14.5 0.00 4.06 4.06 94 1000.7
20260906025428 27 42 3.2 9.7 0.00 4.06 4.06 94 1000.9
20260906024927 27 88 4.8 9.7 0.00 4.06 4.06 94 1000.9
20260906024426 27 245 3.2 6.4 0.00 4.06 4.06 94 1000.8
20260906023921 27 239 4.8 16.1 0.18 4.06 4.06 94 1000.8
20260906023418 27 259 6.4 24.1 0.18 4.06 4.06 94 1000.7
20260906022918 27 327 16.1 25.7 0.00 4.04 4.04 94 1000.8
20260906022413 27 23 3.2 16.1 0.00 4.04 4.04 94 1000.6
20260906021908 27 318 3.2 16.1 0.00 4.04 4.04 95 1000.5
20260906021408 27 293 11.3 17.7 0.00 4.04 4.04 95 1000.4
20260906020902 27 334 4.8 17.7 0.00 4.04 4.04 95 1000.3
20260906020357 27 291 9.7 25.7 0.00 4.04 4.04 95 1000.4
20260906015851 27 329 4.8 12.9 0.00 4.04 4.04 96 1000.7
20260906015350 26 349 8.0 17.7 0.00 4.04 4.04 96 1000.5
20260906014845 26 95 1.6 14.5 0.13 4.04 4.04 96 1000.5
20260906014344 26 37 6.4 16.1 0.71 4.04 4.04 96 1000.4
20260906013841 26 29 6.4 6.4 0.61 3.99 3.99 96 1000.3
20260906013336 26 306 9.7 17.7 0.00 3.89 3.89 96 1000.6
20260906012831 26 67 9.7 14.5 0.13 3.89 3.89 96 1000.7
20260906012326 26 267 8.0 11.3 0.89 3.89 3.89 96 1000.6
20260906011826 26 250 9.7 16.1 1.85 3.86 3.86 96 1000.7
20260906011321 26 244 1.6 4.8 3.30 3.71 3.71 96 1000.6
20260906010817 26 71 1.6 20.9 4.45 3.51 3.51 96 1000.9
20260906010313 26 332 6.4 9.7 2.77 3.12 3.12 96 1000.9
20260906005808 26 291 8.0 16.1 0.79 2.74 2.74 96 1000.9
20260906005307 26 277 3.2 6.4 0.89 2.67 2.67 95 1000.9
20260906004807 26 56 3.2 9.7 2.69 2.62 2.62 95 1000.9
20260906004306 26 59 8.0 24.1 2.95 2.49 2.49 95 1000.8
20260906003801 26 299 12.9 17.7 2.59 2.13 2.13 95 1000.7
20260906003257 26 269 9.7 20.9 2.77 1.96 1.96 95 1000.6
20260906002752 26 281 4.8 14.5 1.27 1.65 1.65 95 1000.6
20260906002246 26 94 3.2 4.8 1.02 1.50 1.50 95 1000.3
20260906001742 26 303 6.4 11.3 0.89 1.45 1.45 95 1000.5
20260906001236 26 267 4.8 12.9 0.18 1.32 1.32 95 1000.3
20260906000732 26 277 3.2 11.3 0.89 1.30 1.30 95 1000.1
20260906000226 26 70 3.2 6.4 1.07 1.27 1.27 95 1000.1
20260905235721 26 359 3.2 6.4 0.13 1.12 1.12 95 1000.1
20260905235216 26 341 3.2 4.8 0.00 1.09 1.09 95 1000.2
20260905234712 26 341 3.2 4.8 0.18 1.09 1.09 95 1000.2
20260905234206 26 135 3.2 4.8 0.30 1.09 1.09 95 999.9
20260905233701 26 258 3.2 11.3 0.00 1.04 1.04 95 1000.0
20260905233200 26 309 3.2 9.7 0.00 1.04 1.04 95 999.9
20260905232656 26 329 3.2 3.2 0.00 1.04 1.04 95 1000.0
20260905232151 26 114 1.6 4.8 0.00 1.04 1.04 95 999.7
20260905231646 26 94 1.6 3.2 0.00 1.04 1.04 95 999.7
20260905231143 26 31 3.2 6.4 0.00 1.04 1.04 95 999.8
20260905230633 26 341 8.0 11.3 3.66 1.04 1.04 95 999.8
20260905230131 26 213 3.2 4.8 3.66 1.04 1.04 95 999.9
20260905225630 26 322 11.3 14.5 0.00 0.43 0.43 94 1000.0
20260905225126 26 322 11.3 14.5 0.00 0.43 0.43 94 999.9
20260905224625 26 322 11.3 14.5 0.00 0.43 0.43 94 999.7
20260905224124 26 322 11.3 14.5 0.18 0.43 0.43 94 999.7
20260905223621 26 309 0.0 6.4 0.00 0.41 0.41 94 999.7
20260905223118 26 108 0.0 3.2 0.00 0.41 0.41 94 999.5
20260905222613 26 328 4.8 11.3 0.00 0.41 0.41 94 999.7
20260905222108 26 90 0.0 3.2 0.00 0.41 0.41 94 999.5
20260905221603 26 141 3.2 9.7 0.43 0.41 0.41 94 999.6
20260905221059 26 91 1.6 1.6 0.71 0.41 0.41 94 999.5
20260905220554 26 39 1.6 3.2 0.79 0.33 0.33 93 999.4
20260905220051 26 0 1.6 1.6 0.61 0.25 0.25 93 999.5
20260905215549 26 36 3.2 9.7 0.43 0.18 0.18 93 999.4
20260905215046 27 71 1.6 1.6 0.79 0.15 0.15 93 999.4
20260905214542 27 126 1.6 3.2 0.30 0.08 0.08 92 999.2
20260905214037 27 95 0.0 1.6 0.13 0.03 0.03 92 999.2
20260905213532 27 71 0.0 3.2 0.00 0.00 0.00 92 999.3
20260905213027 27 99 0.0 1.6 0.00 0.00 0.00 92 999.1
20260905212522 27 68 0.0 4.8 0.00 0.00 0.00 92 999.1
20260905212021 27 263 4.8 6.4 0.00 0.00 0.00 91 999.1
20260905211517 27 306 3.2 11.3 0.00 0.00 0.00 91 999.0
20260905211013 27 322 6.4 11.3 0.00 0.00 0.00 91 999.0
20260905210508 27 97 1.6 4.8 0.00 0.00 0.00 91 998.9
20260905210009 27 117 0.0 1.6 0.00 0.00 0.00 91 998.9
20260905205508 27 312 6.4 11.3 0.00 0.00 0.00 91 998.6
20260905205007 27 48 3.2 11.3 0.00 0.00 0.00 92 998.6
20260905204502 27 305 1.6 4.8 0.00 0.00 0.00 92 998.5
20260905204002 26 271 6.4 9.7 0.00 0.00 0.00 92 998.0
20260905203458 26 174 3.2 4.8 0.00 0.00 0.00 92 998.0
20260905202953 26 99 0.0 3.2 0.00 0.00 0.00 92 998.0
20260905202448 26 281 1.6 4.8 0.00 0.00 0.00 92 998.1
20260905201943 26 101 0.0 1.6 0.00 0.00 0.00 92 997.9
20260905201438 26 98 0.0 0.0 0.00 0.00 0.00 91 997.8
20260905200933 26 69 0.0 1.6 0.00 0.00 0.00 92 997.8
20260905200429 26 353 1.6 1.6 0.00 0.00 0.00 92 997.9
20260905195926 26 62 1.6 3.2 0.00 0.00 0.00 92 997.7
20260905195417 26 129 0.0 1.6 0.00 0.00 0.00 91 997.6
20260905194912 26 129 0.0 4.8 0.00 0.00 0.00 91 997.5
20260905194411 26 248 0.0 3.2 0.00 0.00 0.00 91 997.3
20260905193906 26 102 0.0 1.6 0.00 0.00 0.00 91 997.4
20260905193401 26 106 0.0 3.2 0.00 0.00 0.00 91 997.3
20260905192856 26 105 0.0 0.0 0.00 0.00 0.00 91 997.5
20260905192352 26 109 0.0 3.2 0.00 0.00 0.00 91 997.4
20260905191851 26 113 0.0 1.6 0.00 0.00 0.00 91 997.5
20260905191350 26 68 1.6 1.6 0.00 0.00 0.00 91 997.6
20260905190849 27 101 0.0 3.2 0.00 0.00 0.00 91 997.7
20260905190342 27 80 0.0 1.6 0.00 0.00 0.00 91 997.7